This is the latest recevied weather packets stored in our database for station/object DM5AO-10. If no packets are shown the sender has not sent any weather packets the latest 10 day(s).
| Time | Temp. | Humidity | Pressure | Rain* | Wind** | Luminosity | Snow |
|---|---|---|---|---|---|---|---|
| 1787623770 | 19.44° C | 59% | 1020.1 hPa | - | - | - | - |
| 1787622869 | 20° C | 57% | 1020.2 hPa | - | - | - | - |
| 1787621968 | 20° C | 57% | 1020.2 hPa | - | - | - | - |
| 1787621068 | 20° C | 57% | 1020.2 hPa | - | - | - | - |
| 1787620171 | 20° C | 57% | 1020.5 hPa | - | - | - | - |
| 1787619266 | 20° C | 56% | 1020.3 hPa | - | - | - | - |
| 1787618365 | 20° C | 57% | 1020.5 hPa | - | - | - | - |
| 1787617464 | 20.56° C | 56% | 1020.6 hPa | - | - | - | - |
| 1787616564 | 20° C | 56% | 1020.7 hPa | - | - | - | - |
| 1787615749 | 20.56° C | 55% | 1020.8 hPa | - | - | - | - |
| 1787615663 | 20° C | 56% | 1020.8 hPa | - | - | - | - |
| 1787614762 | 20.56° C | 55% | 1020.8 hPa | - | - | - | - |
| 1787613861 | 20.56° C | 55% | 1021 hPa | - | - | - | - |
| 1787612960 | 21.11° C | 54% | 1020.9 hPa | - | - | - | - |
| 1787612060 | 21.11° C | 54% | 1021.1 hPa | - | - | - | - |
| 1787611159 | 21.11° C | 54% | 1021.2 hPa | - | - | - | - |
| 1787610258 | 21.11° C | 54% | 1021.4 hPa | - | - | - | - |
| 1787609356 | 20.56° C | 55% | 1021.3 hPa | - | - | - | - |
| 1787608456 | 21.67° C | 53% | 1021.5 hPa | - | - | - | - |
| 1787607555 | 21.11° C | 54% | 1021.4 hPa | - | - | - | - |
| 1787606654 | 21.67° C | 53% | 1021.4 hPa | - | - | - | - |
| 1787605753 | 22.22° C | 52% | 1021.4 hPa | - | - | - | - |
| 1787604852 | 21.67° C | 52% | 1021.3 hPa | - | - | - | - |
| 1787603951 | 21.67° C | 52% | 1021.3 hPa | - | - | - | - |
| 1787603051 | 22.22° C | 50% | 1021.3 hPa | - | - | - | - |
* Rain since midnight (hover to see other rain measurements)
** Current wind speed in m/s (hover to see current wind gust speed)